Weather Roundup
Issued by NWS

Home | Current Version | Previous Version | Graphics & Text | Print | Product List | Glossary Off
Versions: 1 2 3 4 5 6 7 8 9 10 11 12 13 14 15 16 17 18 19 20 21 22 23 24 25 26 27 28 29 30 31 32 33 34 35 36 37 38 39 40 41 42 43 44 45 46 47 48 49 50

000
NZUS93 KARX 270810
HRRWXR

CURRENT HOURLY OBSERVATIONS ACROSS
MUCH OF THE UPPER MISSISSIPPI VALLEY
NATIONAL WEATHER SERVICE LA CROSSE WI
200 AM CST MON FEB 27 2017


...SOUTHEAST MINNESOTA...


CITY           SKY/WX    TMP DP  RH WIND       PRES   REMARKS
ROCHESTER      CLEAR     15  13  91 S7        29.98R WCI   5
ROCHESTER/MAYO FAIR      18  18  98 SE6       29.99S WCI  10
WINONA         PTCLDY    19  18  93 CALM      30.04S
AUSTIN         CLEAR     14  12  92 S5        29.99  WCI   6
ALBERT LEA     CLEAR     21  19  93 S3        29.98S
DODGE CENTER   NOT AVBL
PRESTON        CLEAR     20  18  91 SW9       29.99F WCI   9
OWATONNA       CLEAR     21  18  86 S10       29.96S WCI  10
FARIBAULT      CLEAR     19  18  93 S5        29.97S WCI  13
$$

...ELSEWHERE IN MINNESOTA...


CITY           SKY/WX    TMP DP  RH WIND       PRES   REMARKS
MINNEAPOLIS    PTCLDY    26  20  77 SE7       29.96S WCI  18
INTNL FALLS    CLEAR      2  -3  80 SW3       29.89R
DULUTH         CLOUDY    13   1  59 SW7       29.93R WCI   3
RED WING       PTCLDY    25  19  80 S7        29.98S WCI  17
REDWOOD FALLS  PTCLDY    29  23  78 S9        29.90S WCI  20
MANKATO          N/A     21  18  88 S5        29.96S WCI  15
WORTHINGTON    CLEAR     27  22  81 SW15      29.92S WCI  15
FAIRMONT       CLEAR     17  14  88 S6        29.96S WCI   9
$$

...SOUTHWEST WISCONSIN...


CITY           SKY/WX    TMP DP  RH WIND       PRES   REMARKS
LA CROSSE      CLEAR     27  22  81 SE6       30.04R WCI  20
PRAIRIE DU CHI PTCLDY    23  21  92 E3        30.07R
BOSCOBEL       CLEAR     23  20  88 CALM      30.07R FOG
LONE ROCK      PTCLDY    25  21  85 CALM      30.07R
PLATTEVILLE    CLEAR     29  26  92 CALM      30.06R
FORT MC COY    CLEAR     18  17  95 CALM      30.04S
CAMP DOUGLAS   CLEAR     20  19  93 CALM      30.03R
MAUSTON-NEW LI SUNNY     26  22  85 CALM      30.03S
VIROQUA        FAIR      25  23  93 SW3       30.02R
WIS DELLS      CLEAR     27  21  80 SW3       30.05R
$$

...ELSEWHERE IN WISCONSIN...


CITY           SKY/WX    TMP DP  RH WIND       PRES   REMARKS
MILWAUKEE      CLEAR     33  22  63 W3        30.08R
MADISON        CLEAR     25  22  88 CALM      30.06R
GREEN BAY      CLEAR     26  22  84 NW3       30.04R
EAU CLAIRE     CLOUDY    24  18  77 S5        29.99R WCI  18
BLACK RVR FLS  FAIR      22  21  98 CALM      30.03R
MEDFORD        CLOUDY    18  13  80 CALM      29.97R
WAUSAU         CLOUDY    22  15  75 SE3       29.99R
WIS RAPIDS     CLEAR     20  19  96 CALM      30.03R
MARSHFIELD     MOCLDY    21  18  88 CALM      29.98R
RICE LAKE      CLOUDY    25  14  62 SE3       29.99R
$$

...NORTHEAST IOWA...


CITY           SKY/WX    TMP DP  RH WIND       PRES   REMARKS
WATERLOO       CLEAR     25  22  88 CALM      30.04S
DUBUQUE        PTCLDY    24  22  91 CALM      30.05R
DECORAH        CLEAR     23  21  93 S5        30.02R WCI  17
MASON CITY     CLEAR     13  10  88 S5        30.01R WCI   5
CHARLES CITY   CLEAR     19  19 100 S8        30.03R WCI   9
OELWEIN        CLEAR     25  25 100 S5        30.04S WCI  19
$$

...ELSEWHERE IN IOWA...


CITY           SKY/WX    TMP DP  RH WIND       PRES   REMARKS
DES MOINES     PTCLDY    32  22  66 CALM      30.03S
IOWA CITY      PTCLDY    31  26  82 CALM      30.08S
FORT DODGE     CLEAR     19  16  86 S5        30.01S WCI  13
MARSHALLTOWN   CLEAR     20  19  96 E6        30.02F WCI  12
CEDAR RAPIDS   PTCLDY    23  22  96 SE5       30.05R WCI  17
$$

...NORTHERN ILLINOIS...


CITY           SKY/WX    TMP DP  RH WIND       PRES   REMARKS
CHICAGO-OHARE  PTCLDY    34  24  67 CALM      30.08R
CHICAGO-MIDWAY PTCLDY    35  23  61 SW6       30.10R WCI  30
MOLINE         CLEAR     29  26  89 CALM      30.07R
ROCKFORD       PTCLDY    29  25  85 S3        30.10R
PEORIA         CLEAR     31  25  78 CALM      30.12R
$$

NOTE: "FAIR" INDICATES FEW OR NO CLOUDS BELOW 12,000 FEET WITH NO
SIGNIFICANT WEATHER AND/OR OBSTRUCTIONS TO VISIBILITY. WIND
SPEEDS ARE IN MILES-PER-HOUR.




USA.gov is the U.S. government's official web portal to all federal, state and local government web resources and services.